Time,TemperatureF,DewpointF,PressureIn,WindDirection,WindDirectionDegrees,WindSpeedMPH,WindSpeedGustMPH,Humidity,HourlyPrecipIn,Conditions,Clouds,dailyrainin,SoftwareType,DateUTC
2013-03-29 00:00:00,36.1,30.0,30.30,North,0,0.0,0.0,78,0.00,,SCT170,0.00,VWS V14.01,2013-03-29 04:00:00,
2013-03-29 00:03:00,36.0,29.8,30.30,North,0,0.0,0.0,78,0.00,,SCT170,0.00,VWS V14.01,2013-03-29 04:03:00,
2013-03-29 00:08:00,35.8,29.7,30.30,North,0,0.0,0.0,78,0.00,,SCT170,0.00,VWS V14.01,2013-03-29 04:08:00,
2013-03-29 00:14:00,35.6,29.5,30.30,North,0,0.0,0.0,78,0.00,,SCT170,0.00,VWS V14.01,2013-03-29 04:14:00,
2013-03-29 00:19:00,35.4,29.3,30.30,North,0,0.0,0.0,78,0.00,,SCT170,0.00,VWS V14.01,2013-03-29 04:19:00,
2013-03-29 00:24:00,35.1,29.0,30.27,North,0,0.0,0.0,78,0.00,,SCT170,0.00,VWS V14.01,2013-03-29 04:24:00,
2013-03-29 00:29:00,34.9,28.8,30.27,North,0,0.0,0.0,78,0.00,,SCT170,0.00,VWS V14.01,2013-03-29 04:29:00,
2013-03-29 00:35:00,34.7,29.1,30.27,North,0,0.0,0.0,80,0.00,,FEW170,0.00,VWS V14.01,2013-03-29 04:35:00,
2013-03-29 00:40:00,34.5,29.0,30.30,North,0,0.0,0.0,80,0.00,,FEW170,0.00,VWS V14.01,2013-03-29 04:40:00,
2013-03-29 00:45:00,34.5,29.0,30.30,North,0,0.0,0.0,80,0.00,,FEW170,0.00,VWS V14.01,2013-03-29 04:45:00,
2013-03-29 00:50:00,34.3,28.8,30.30,North,0,0.0,0.0,80,0.00,,FEW170,0.00,VWS V14.01,2013-03-29 04:50:00,
2013-03-29 00:55:00,34.0,28.4,30.30,North,0,0.0,0.0,80,0.00,,FEW170,0.00,VWS V14.01,2013-03-29 04:55:00,
2013-03-29 01:00:00,33.6,28.1,30.30,North,0,0.0,0.0,80,0.00,,FEW170,0.00,VWS V14.01,2013-03-29 05:00:00,
2013-03-29 01:06:00,33.3,27.7,30.30,North,0,0.0,0.0,80,0.00,,FEW170,0.00,VWS V14.01,2013-03-29 05:06:00,
2013-03-29 01:11:00,33.1,28.1,30.27,North,0,0.0,0.0,82,0.00,,FEW170,0.00,VWS V14.01,2013-03-29 05:11:00,
2013-03-29 01:16:00,33.1,29.6,30.27,North,0,0.0,0.0,87,0.00,,FEW170,0.00,VWS V14.01,2013-03-29 05:16:00,
2013-03-29 01:21:00,33.1,30.5,30.27,North,0,0.0,0.0,90,0.00,,FEW170,0.00,VWS V14.01,2013-03-29 05:21:00,
2013-03-29 01:26:00,32.9,31.2,30.27,North,0,0.0,0.0,94,0.00,,FEW170,0.00,VWS V14.01,2013-03-29 05:26:00,
2013-03-29 01:31:00,32.9,32.9,30.27,North,0,0.0,0.0,100,0.00,,FEW170,0.00,VWS V14.01,2013-03-29 05:31:00,
2013-03-29 01:37:00,32.9,32.9,30.27,North,0,0.0,0.0,100,0.00,,FEW170,0.00,VWS V14.01,2013-03-29 05:37:00,
2013-03-29 01:42:00,32.7,32.7,30.27,North,0,0.0,0.0,100,0.00,,FEW170,0.00,VWS V14.01,2013-03-29 05:42:00,
2013-03-29 01:47:00,32.7,32.7,30.27,North,0,0.0,0.0,100,0.00,,FEW170,0.00,VWS V14.01,2013-03-29 05:47:00,
2013-03-29 01:52:00,32.7,32.7,30.27,North,0,0.0,0.0,100,0.00,,FEW170,0.00,VWS V14.01,2013-03-29 05:52:00,
2013-03-29 01:57:00,32.7,32.7,30.27,North,0,0.0,0.0,100,0.00,,FEW170,0.00,VWS V14.01,2013-03-29 05:57:00,
2013-03-29 02:02:00,32.5,32.5,30.27,North,0,0.0,0.0,100,0.00,,FEW170,0.00,VWS V14.01,2013-03-29 06:02:00,
2013-03-29 02:08:00,32.5,32.5,30.27,North,0,0.0,0.0,100,0.00,,FEW170,0.00,VWS V14.01,2013-03-29 06:08:00,
2013-03-29 02:13:00,32.5,32.2,30.27,North,0,0.0,0.0,99,0.00,,FEW170,0.00,VWS V14.01,2013-03-29 06:13:00,
2013-03-29 02:18:00,32.2,31.8,30.27,North,0,0.0,0.0,99,0.00,,FEW170,0.00,VWS V14.01,2013-03-29 06:18:00,
2013-03-29 02:23:00,32.2,31.4,30.27,North,0,0.0,0.0,97,0.00,,FEW170,0.00,VWS V14.01,2013-03-29 06:23:00,
2013-03-29 02:28:00,32.0,31.2,30.27,North,0,0.0,0.0,97,0.00,,FEW170,0.00,VWS V14.01,2013-03-29 06:28:00,
2013-03-29 02:33:00,32.0,31.2,30.27,North,0,0.0,0.0,97,0.00,,FEW170,0.00,VWS V14.01,2013-03-29 06:33:00,
2013-03-29 02:38:00,32.0,31.2,30.27,North,0,0.0,0.0,97,0.00,,FEW170,0.00,VWS V14.01,2013-03-29 06:38:00,
2013-03-29 02:43:00,32.0,31.2,30.27,North,0,0.0,0.0,97,0.00,,FEW170,0.00,VWS V14.01,2013-03-29 06:43:00,
2013-03-29 02:48:00,32.2,31.4,30.27,North,0,0.0,0.0,97,0.00,,FEW170,0.00,VWS V14.01,2013-03-29 06:48:00,
2013-03-29 02:53:00,32.2,31.4,30.27,North,0,0.0,0.0,97,0.00,,FEW170,0.00,VWS V14.01,2013-03-29 06:53:00,
2013-03-29 02:58:00,32.2,31.0,30.27,North,0,0.0,0.0,95,0.00,,FEW170,0.00,VWS V14.01,2013-03-29 06:58:00,
2013-03-29 03:03:00,32.2,31.0,30.27,North,0,0.0,0.0,95,0.00,,FEW170,0.00,VWS V14.01,2013-03-29 07:03:00,
2013-03-29 03:09:00,32.0,31.2,30.27,North,0,0.0,0.0,97,0.00,,FEW170,0.00,VWS V14.01,2013-03-29 07:09:00,
2013-03-29 03:14:00,31.8,30.6,30.27,North,0,0.0,0.0,95,0.00,,FEW170,0.00,VWS V14.01,2013-03-29 07:14:00,
2013-03-29 03:19:00,31.5,30.2,30.27,North,0,0.0,0.0,95,0.00,,FEW170,0.00,VWS V14.01,2013-03-29 07:19:00,
2013-03-29 03:24:00,31.1,29.9,30.27,North,0,0.0,0.0,95,0.00,,FEW170,0.00,VWS V14.01,2013-03-29 07:24:00,
2013-03-29 03:29:00,31.1,29.9,30.27,North,0,0.0,0.0,95,0.00,,FEW170,0.00,VWS V14.01,2013-03-29 07:29:00,
2013-03-29 03:34:00,31.1,29.9,30.27,North,0,0.0,0.0,95,0.00,,FEW170,0.00,VWS V14.01,2013-03-29 07:34:00,
2013-03-29 03:40:00,31.1,30.8,30.27,North,0,0.0,0.0,99,0.00,,BKN150,0.00,VWS V14.01,2013-03-29 07:40:00,
2013-03-29 03:45:00,31.3,30.9,30.27,North,0,0.0,0.0,99,0.00,,BKN150,0.00,VWS V14.01,2013-03-29 07:45:00,
2013-03-29 03:50:00,31.3,30.9,30.27,North,0,0.0,0.0,99,0.00,,BKN150,0.00,VWS V14.01,2013-03-29 07:50:00,
2013-03-29 03:55:00,31.5,31.1,30.27,North,0,0.0,0.0,99,0.00,,BKN150,0.00,VWS V14.01,2013-03-29 07:55:00,
2013-03-29 04:00:00,31.3,30.9,30.27,North,0,0.0,0.0,99,0.00,,BKN150,0.00,VWS V14.01,2013-03-29 08:00:00,
2013-03-29 04:05:00,31.3,31.3,30.27,North,0,0.0,0.0,100,0.00,,BKN150,0.00,VWS V14.01,2013-03-29 08:05:00,
2013-03-29 04:10:00,31.5,31.5,30.27,North,0,0.0,0.0,100,0.00,,BKN150,0.00,VWS V14.01,2013-03-29 08:10:00,
2013-03-29 04:15:00,31.5,31.5,30.27,North,0,0.0,0.0,100,0.00,,BKN150,0.00,VWS V14.01,2013-03-29 08:15:00,
2013-03-29 04:20:00,31.5,31.5,30.27,North,0,0.0,0.0,100,0.00,,BKN150,0.00,VWS V14.01,2013-03-29 08:20:00,
2013-03-29 04:25:00,31.5,31.5,30.27,North,0,0.0,0.0,100,0.00,,BKN150,0.00,VWS V14.01,2013-03-29 08:25:00,
2013-03-29 04:30:00,31.6,31.6,30.27,North,0,0.0,0.0,100,0.00,,BKN150,0.00,VWS V14.01,2013-03-29 08:30:00,
2013-03-29 04:35:00,31.5,31.5,30.27,North,0,0.0,0.0,100,0.00,,SCT150,0.00,VWS V14.01,2013-03-29 08:35:00,
2013-03-29 04:40:00,31.3,31.3,30.27,North,0,0.0,0.0,100,0.00,,SCT150,0.00,VWS V14.01,2013-03-29 08:40:00,
2013-03-29 04:45:00,31.1,31.1,30.27,North,0,0.0,0.0,100,0.00,,SCT150,0.00,VWS V14.01,2013-03-29 08:45:00,
2013-03-29 04:50:00,31.1,31.1,30.27,North,0,0.0,0.0,100,0.00,,SCT150,0.00,VWS V14.01,2013-03-29 08:50:00,
2013-03-29 04:55:00,31.1,31.1,30.27,North,0,0.0,0.0,100,0.00,,SCT150,0.00,VWS V14.01,2013-03-29 08:55:00,
2013-03-29 05:00:00,31.1,31.1,30.27,North,0,0.0,0.0,100,0.00,,SCT150,0.00,VWS V14.01,2013-03-29 09:00:00,
2013-03-29 05:05:00,30.7,30.7,30.27,North,0,0.0,0.0,100,0.00,,SCT150,0.00,VWS V14.01,2013-03-29 09:05:00,
2013-03-29 05:10:00,30.4,30.4,30.27,North,0,0.0,0.0,100,0.00,,SCT150,0.00,VWS V14.01,2013-03-29 09:10:00,
2013-03-29 05:15:00,30.2,30.2,30.27,North,0,0.0,0.0,100,0.00,,SCT150,0.00,VWS V14.01,2013-03-29 09:15:00,
2013-03-29 05:20:00,29.8,29.8,30.27,North,0,0.0,0.0,100,0.00,,SCT150,0.00,VWS V14.01,2013-03-29 09:20:00,
2013-03-29 05:25:00,29.7,29.7,30.27,North,0,0.0,0.0,100,0.00,,SCT150,0.00,VWS V14.01,2013-03-29 09:25:00,
2013-03-29 05:30:00,29.7,29.7,30.27,North,0,0.0,0.0,100,0.00,,SCT150,0.00,VWS V14.01,2013-03-29 09:30:00,
2013-03-29 05:35:00,29.7,29.7,30.27,North,0,0.0,0.0,100,0.00,,SCT150,0.00,VWS V14.01,2013-03-29 09:35:00,
2013-03-29 05:40:00,29.7,29.7,30.27,North,0,0.0,0.0,100,0.00,,SCT150,0.00,VWS V14.01,2013-03-29 09:40:00,
2013-03-29 05:45:00,29.7,29.7,30.27,North,0,0.0,0.0,100,0.00,,SCT150,0.00,VWS V14.01,2013-03-29 09:45:00,
2013-03-29 05:50:00,29.5,29.5,30.27,North,0,0.0,0.0,100,0.00,,SCT150,0.00,VWS V14.01,2013-03-29 09:50:00,
2013-03-29 05:55:00,29.5,29.5,30.27,North,0,0.0,0.0,100,0.00,,SCT150,0.00,VWS V14.01,2013-03-29 09:55:00,
2013-03-29 06:00:00,29.5,29.5,30.27,North,0,0.0,0.0,100,0.00,,SCT150,0.00,VWS V14.01,2013-03-29 10:00:00,
2013-03-29 06:05:00,29.3,29.3,30.27,North,0,0.0,0.0,100,0.00,,SCT150,0.00,VWS V14.01,2013-03-29 10:05:00,
2013-03-29 06:10:00,29.3,29.3,30.27,North,0,0.0,0.0,100,0.00,,SCT150,0.00,VWS V14.01,2013-03-29 10:10:00,
2013-03-29 06:15:00,29.3,29.3,30.27,North,0,0.0,0.0,100,0.00,,SCT150,0.00,VWS V14.01,2013-03-29 10:15:00,
2013-03-29 06:20:00,29.3,29.3,30.27,North,0,0.0,0.0,100,0.00,,SCT150,0.00,VWS V14.01,2013-03-29 10:20:00,
2013-03-29 06:25:00,29.1,29.1,30.27,North,0,0.0,0.0,100,0.00,,SCT150,0.00,VWS V14.01,2013-03-29 10:25:00,
2013-03-29 06:31:00,29.1,29.1,30.27,North,0,0.0,0.0,100,0.00,,SCT150,0.00,VWS V14.01,2013-03-29 10:31:00,
2013-03-29 06:36:00,28.9,28.9,30.27,North,0,0.0,0.0,100,0.00,,BKN160,0.00,VWS V14.01,2013-03-29 10:36:00,
2013-03-29 06:41:00,28.9,28.9,30.27,North,0,0.0,0.0,100,0.00,,BKN160,0.00,VWS V14.01,2013-03-29 10:41:00,
2013-03-29 06:46:00,28.8,28.8,30.27,North,0,0.0,0.0,100,0.00,,BKN160,0.00,VWS V14.01,2013-03-29 10:46:00,
2013-03-29 06:51:00,28.8,28.8,30.27,North,0,0.0,0.0,100,0.00,,BKN160,0.00,VWS V14.01,2013-03-29 10:51:00,
2013-03-29 06:56:00,28.6,28.6,30.27,North,0,0.0,0.0,100,0.00,,BKN160,0.00,VWS V14.01,2013-03-29 10:56:00,
2013-03-29 07:02:00,28.6,28.6,30.27,North,0,0.0,0.0,100,0.00,,BKN160,0.00,VWS V14.01,2013-03-29 11:02:00,
2013-03-29 07:07:00,28.9,28.9,30.27,North,0,0.0,0.0,100,0.00,,BKN160,0.00,VWS V14.01,2013-03-29 11:07:00,
2013-03-29 07:12:00,29.1,29.1,30.27,North,0,0.0,0.0,100,0.00,,BKN160,0.00,VWS V14.01,2013-03-29 11:12:00,
2013-03-29 07:17:00,29.3,29.3,30.27,North,0,0.0,0.0,100,0.00,,BKN160,0.00,VWS V14.01,2013-03-29 11:17:00,
2013-03-29 07:22:00,29.5,29.5,30.27,North,0,0.0,0.0,100,0.00,,BKN160,0.00,VWS V14.01,2013-03-29 11:22:00,
2013-03-29 07:27:00,29.7,29.7,30.27,North,0,0.0,0.0,100,0.00,,BKN160,0.00,VWS V14.01,2013-03-29 11:27:00,
2013-03-29 07:32:00,29.8,29.8,30.27,North,0,0.0,0.0,100,0.00,,BKN160,0.00,VWS V14.01,2013-03-29 11:32:00,
2013-03-29 07:37:00,30.2,30.2,30.27,North,0,0.0,0.0,100,0.00,,BKN160,0.00,VWS V14.01,2013-03-29 11:37:00,
2013-03-29 07:43:00,30.6,30.6,30.27,North,0,0.0,0.0,100,0.00,,BKN160,0.00,VWS V14.01,2013-03-29 11:43:00,
2013-03-29 07:48:00,31.1,31.1,30.27,North,0,0.0,0.0,100,0.00,,BKN160,0.00,VWS V14.01,2013-03-29 11:48:00,
2013-03-29 07:53:00,31.3,31.3,30.27,North,0,0.0,0.0,100,0.00,,BKN160,0.00,VWS V14.01,2013-03-29 11:53:00,
2013-03-29 07:58:00,31.6,31.6,30.27,North,0,0.0,0.0,100,0.00,,BKN160,0.00,VWS V14.01,2013-03-29 11:58:00,
2013-03-29 08:03:00,32.0,32.0,30.27,North,0,0.0,0.0,100,0.00,,BKN160,0.00,VWS V14.01,2013-03-29 12:03:00,
2013-03-29 08:08:00,32.2,32.2,30.27,North,0,0.0,0.0,100,0.00,,BKN160,0.00,VWS V14.01,2013-03-29 12:08:00,
2013-03-29 08:13:00,32.4,32.4,30.27,North,0,0.0,0.0,100,0.00,,BKN160,0.00,VWS V14.01,2013-03-29 12:13:00,
2013-03-29 08:18:00,32.5,32.5,30.27,North,0,0.0,0.0,100,0.00,,BKN160,0.00,VWS V14.01,2013-03-29 12:18:00,
2013-03-29 08:23:00,32.5,32.5,30.27,North,0,0.0,0.0,100,0.00,,BKN160,0.00,VWS V14.01,2013-03-29 12:23:00,
2013-03-29 08:29:00,32.7,32.7,30.27,North,0,0.0,0.0,100,0.00,,BKN160,0.00,VWS V14.01,2013-03-29 12:29:00,
2013-03-29 08:34:00,32.9,32.9,30.27,North,0,0.0,0.0,100,0.00,,BKN160,0.00,VWS V14.01,2013-03-29 12:34:00,
2013-03-29 08:39:00,33.1,33.1,30.27,North,0,0.0,0.0,100,0.00,,BKN160,0.00,VWS V14.01,2013-03-29 12:39:00,
2013-03-29 08:44:00,33.3,33.3,30.27,North,0,0.0,0.0,100,0.00,,BKN160,0.00,VWS V14.01,2013-03-29 12:44:00,
2013-03-29 08:49:00,33.4,33.4,30.27,North,0,0.0,0.0,100,0.00,,BKN160,0.00,VWS V14.01,2013-03-29 12:49:00,
2013-03-29 08:54:00,33.6,33.6,30.27,North,0,0.0,0.0,100,0.00,,BKN160,0.00,VWS V14.01,2013-03-29 12:54:00,
2013-03-29 08:59:00,33.8,33.8,30.27,North,0,0.0,0.0,100,0.00,,BKN160,0.00,VWS V14.01,2013-03-29 12:59:00,
2013-03-29 09:04:00,34.2,34.2,30.27,North,0,0.0,0.0,100,0.00,,BKN160,0.00,VWS V14.01,2013-03-29 13:04:00,
2013-03-29 09:09:00,34.5,34.5,30.27,North,0,0.0,0.0,100,0.00,,BKN160,0.00,VWS V14.01,2013-03-29 13:09:00,
2013-03-29 09:14:00,34.9,34.9,30.27,North,0,0.0,0.0,100,0.00,,BKN160,0.00,VWS V14.01,2013-03-29 13:14:00,
2013-03-29 09:20:00,35.4,35.4,30.27,North,0,0.0,0.0,100,0.00,,BKN160,0.00,VWS V14.01,2013-03-29 13:20:00,
2013-03-29 09:25:00,36.3,36.3,30.27,North,0,0.0,0.0,100,0.00,,BKN160,0.00,VWS V14.01,2013-03-29 13:25:00,
2013-03-29 09:30:00,37.6,37.6,30.27,North,0,0.0,0.0,100,0.00,,BKN160,0.00,VWS V14.01,2013-03-29 13:30:00,
2013-03-29 09:35:00,38.3,38.3,30.27,North,0,0.0,0.0,100,0.00,,BKN150,0.00,VWS V14.01,2013-03-29 13:35:00,
2013-03-29 09:40:00,39.0,39.0,30.27,North,0,0.0,0.0,100,0.00,,BKN150,0.00,VWS V14.01,2013-03-29 13:40:00,
2013-03-29 09:45:00,39.7,39.7,30.27,North,0,0.0,0.0,100,0.00,,BKN150,0.00,VWS V14.01,2013-03-29 13:45:00,
2013-03-29 09:51:00,40.3,40.3,30.27,North,0,0.0,0.0,100,0.00,,BKN150,0.00,VWS V14.01,2013-03-29 13:51:00,
2013-03-29 09:56:00,40.5,40.5,30.27,North,0,0.0,0.0,100,0.00,,BKN150,0.00,VWS V14.01,2013-03-29 13:56:00,
2013-03-29 10:02:00,40.5,40.1,30.27,North,0,0.0,0.0,99,0.00,,BKN150,0.00,VWS V14.01,2013-03-29 14:02:00,
2013-03-29 10:07:00,40.3,39.0,30.27,North,0,0.0,0.0,95,0.00,,BKN150,0.00,VWS V14.01,2013-03-29 14:07:00,
2013-03-29 10:12:00,40.5,38.3,30.30,North,0,0.0,0.0,92,0.00,,BKN150,0.00,VWS V14.01,2013-03-29 14:12:00,
2013-03-29 10:18:00,40.6,38.0,30.30,North,0,0.0,0.0,90,0.00,,BKN150,0.00,VWS V14.01,2013-03-29 14:18:00,
2013-03-29 10:23:00,40.5,37.3,30.30,North,0,0.0,0.0,88,0.00,,BKN150,0.00,VWS V14.01,2013-03-29 14:23:00,
2013-03-29 10:28:00,40.6,37.5,30.30,North,0,0.0,0.0,88,0.00,,BKN150,0.00,VWS V14.01,2013-03-29 14:28:00,
2013-03-29 10:33:00,41.5,38.4,30.30,North,0,0.0,0.0,88,0.00,,BKN150,0.00,VWS V14.01,2013-03-29 14:33:00,
2013-03-29 10:38:00,42.3,38.1,30.27,North,0,0.0,0.0,85,0.00,,BKN080,0.00,VWS V14.01,2013-03-29 14:38:00,
2013-03-29 10:43:00,43.3,39.7,30.27,North,0,0.0,0.0,87,0.00,,BKN080,0.00,VWS V14.01,2013-03-29 14:43:00,
2013-03-29 10:48:00,44.8,41.1,30.27,North,0,0.0,0.0,87,0.00,,BKN080,0.00,VWS V14.01,2013-03-29 14:48:00,
2013-03-29 10:54:00,45.9,41.6,30.27,North,0,0.0,0.0,85,0.00,,BKN080,0.00,VWS V14.01,2013-03-29 14:54:00,
2013-03-29 10:59:00,46.4,41.6,30.27,North,0,0.0,0.0,83,0.00,,BKN080,0.00,VWS V14.01,2013-03-29 14:59:00,
2013-03-29 11:04:00,46.9,42.2,30.27,North,0,0.0,0.0,83,0.00,,BKN080,0.00,VWS V14.01,2013-03-29 15:04:00,
2013-03-29 11:09:00,47.1,38.4,30.27,North,0,0.0,0.0,71,0.00,,BKN080,0.00,VWS V14.01,2013-03-29 15:09:00,
2013-03-29 11:14:00,47.3,37.3,30.27,North,0,0.0,0.0,68,0.00,,BKN080,0.00,VWS V14.01,2013-03-29 15:14:00,
2013-03-29 11:19:00,47.5,37.5,30.27,North,0,0.0,0.0,68,0.00,,BKN080,0.00,VWS V14.01,2013-03-29 15:19:00,
2013-03-29 11:24:00,48.0,37.3,30.27,North,0,0.0,0.0,66,0.00,,BKN080,0.00,VWS V14.01,2013-03-29 15:24:00,
2013-03-29 11:29:00,48.0,36.7,30.27,North,0,0.0,0.0,65,0.00,,BKN080,0.00,VWS V14.01,2013-03-29 15:29:00,
2013-03-29 11:34:00,48.0,36.7,30.27,North,0,0.0,0.0,65,0.00,,BKN080,0.00,VWS V14.01,2013-03-29 15:34:00,
2013-03-29 11:39:00,48.7,38.0,30.27,North,0,0.0,0.0,66,0.00,,BKN090,0.00,VWS V14.01,2013-03-29 15:39:00,
2013-03-29 11:45:00,49.1,38.4,30.27,North,0,0.0,0.0,66,0.00,,BKN090,0.00,VWS V14.01,2013-03-29 15:45:00,
2013-03-29 11:50:00,49.3,37.2,30.27,North,0,0.0,0.0,63,0.00,,BKN090,0.00,VWS V14.01,2013-03-29 15:50:00,
2013-03-29 11:55:00,49.6,37.5,30.27,North,0,0.0,0.0,63,0.00,,BKN090,0.00,VWS V14.01,2013-03-29 15:55:00,
2013-03-29 12:00:00,50.5,38.4,30.27,North,0,0.0,0.0,63,0.00,,BKN090,0.00,VWS V14.01,2013-03-29 16:00:00,
2013-03-29 12:05:00,50.9,38.7,30.27,North,0,0.0,0.0,63,0.00,,BKN090,0.00,VWS V14.01,2013-03-29 16:05:00,
2013-03-29 12:10:00,51.6,38.7,30.27,North,0,0.0,0.0,61,0.00,,BKN090,0.00,VWS V14.01,2013-03-29 16:10:00,
2013-03-29 12:16:00,52.2,39.2,30.27,North,0,0.0,0.0,61,0.00,,BKN090,0.00,VWS V14.01,2013-03-29 16:16:00,
2013-03-29 12:22:00,52.3,36.4,30.27,North,0,0.0,0.0,54,0.00,,BKN090,0.00,VWS V14.01,2013-03-29 16:22:00,
2013-03-29 12:27:00,52.5,36.6,30.27,North,0,0.0,0.0,54,0.00,,BKN090,0.00,VWS V14.01,2013-03-29 16:27:00,
2013-03-29 12:32:00,52.2,34.6,30.27,North,0,0.0,0.0,51,0.00,,BKN090,0.00,VWS V14.01,2013-03-29 16:32:00,
2013-03-29 12:37:00,52.3,35.6,30.27,North,0,0.0,0.0,53,0.00,,BKN095,0.00,VWS V14.01,2013-03-29 16:37:00,
2013-03-29 12:42:00,53.1,37.1,30.27,North,0,0.0,0.0,54,0.00,,BKN095,0.00,VWS V14.01,2013-03-29 16:42:00,
2013-03-29 12:48:00,54.0,37.1,30.27,North,0,0.0,0.0,53,0.00,,BKN095,0.00,VWS V14.01,2013-03-29 16:48:00,
2013-03-29 12:53:00,53.6,34.2,30.24,North,0,0.0,0.0,48,0.00,,BKN095,0.00,VWS V14.01,2013-03-29 16:53:00,
2013-03-29 12:58:00,53.4,35.8,30.24,North,0,0.0,0.0,51,0.00,,BKN095,0.00,VWS V14.01,2013-03-29 16:58:00,
2013-03-29 13:03:00,53.6,35.9,30.24,North,0,0.0,0.0,51,0.00,,BKN095,0.00,VWS V14.01,2013-03-29 17:03:00,
2013-03-29 13:08:00,54.3,36.6,30.24,North,0,0.0,0.0,51,0.00,,BKN095,0.00,VWS V14.01,2013-03-29 17:08:00,
2013-03-29 13:14:00,54.7,35.2,30.24,North,0,0.0,0.0,48,0.00,,BKN095,0.00,VWS V14.01,2013-03-29 17:14:00,
2013-03-29 13:19:00,54.9,36.2,30.24,North,0,0.0,0.0,49,0.00,,BKN095,0.00,VWS V14.01,2013-03-29 17:19:00,
2013-03-29 13:24:00,54.7,36.1,30.24,North,0,0.0,0.0,49,0.00,,BKN095,0.00,VWS V14.01,2013-03-29 17:24:00,
2013-03-29 13:29:00,54.3,35.7,30.24,North,0,0.0,0.0,49,0.00,,BKN095,0.00,VWS V14.01,2013-03-29 17:29:00,
2013-03-29 13:34:00,54.5,36.8,30.24,North,0,0.0,0.0,51,0.00,,BKN095,0.00,VWS V14.01,2013-03-29 17:34:00,
2013-03-29 13:39:00,54.9,37.1,30.24,North,0,0.0,0.0,51,0.00,,BKN095,0.00,VWS V14.01,2013-03-29 17:39:00,
2013-03-29 13:44:00,55.0,37.3,30.24,North,0,0.0,0.0,51,0.00,,BKN095,0.00,VWS V14.01,2013-03-29 17:44:00,
2013-03-29 13:49:00,55.0,36.4,30.24,North,0,0.0,0.0,49,0.00,,BKN095,0.00,VWS V14.01,2013-03-29 17:49:00,
2013-03-29 13:54:00,55.0,36.4,30.24,North,0,0.0,0.0,49,0.00,,BKN095,0.00,VWS V14.01,2013-03-29 17:54:00,
2013-03-29 13:59:00,55.0,36.4,30.24,North,0,0.0,0.0,49,0.00,,BKN095,0.00,VWS V14.01,2013-03-29 17:59:00,
2013-03-29 14:04:00,55.4,36.7,30.24,North,0,0.0,0.0,49,0.00,,BKN095,0.00,VWS V14.01,2013-03-29 18:04:00,
2013-03-29 14:09:00,55.8,37.1,30.22,North,0,0.0,0.0,49,0.00,,BKN095,0.00,VWS V14.01,2013-03-29 18:09:00,
2013-03-29 14:14:00,56.3,37.6,30.22,North,0,0.0,0.0,49,0.00,,BKN095,0.00,VWS V14.01,2013-03-29 18:14:00,
2013-03-29 14:20:00,56.7,36.1,30.22,North,0,0.0,0.0,46,0.00,,BKN095,0.00,VWS V14.01,2013-03-29 18:20:00,
2013-03-29 14:25:00,56.8,37.2,30.22,North,0,0.0,0.0,48,0.00,,BKN095,0.00,VWS V14.01,2013-03-29 18:25:00,
2013-03-29 14:30:00,57.2,37.5,30.22,North,0,0.0,0.0,48,0.00,,BKN095,0.00,VWS V14.01,2013-03-29 18:30:00,
2013-03-29 14:35:00,57.6,37.8,30.22,North,0,0.0,0.0,48,0.00,,SCT250,0.00,VWS V14.01,2013-03-29 18:35:00,
2013-03-29 14:41:00,57.6,36.9,30.22,North,0,0.0,0.0,46,0.00,,SCT250,0.00,VWS V14.01,2013-03-29 18:41:00,
2013-03-29 14:46:00,57.4,36.7,30.22,North,0,0.0,0.0,46,0.00,,SCT250,0.00,VWS V14.01,2013-03-29 18:46:00,
2013-03-29 14:51:00,57.2,36.6,30.22,North,0,0.0,0.0,46,0.00,,SCT250,0.00,VWS V14.01,2013-03-29 18:51:00,
2013-03-29 14:57:00,57.2,36.6,30.22,North,0,0.0,0.0,46,0.00,,SCT250,0.00,VWS V14.01,2013-03-29 18:57:00,
2013-03-29 15:02:00,57.0,36.4,30.22,North,0,0.0,0.0,46,0.00,,SCT250,0.00,VWS V14.01,2013-03-29 19:02:00,
2013-03-29 15:07:00,57.4,37.7,30.22,North,0,0.0,0.0,48,0.00,,SCT250,0.00,VWS V14.01,2013-03-29 19:07:00,
2013-03-29 15:12:00,58.1,37.4,30.22,North,0,0.0,0.0,46,0.00,,SCT250,0.00,VWS V14.01,2013-03-29 19:12:00,
2013-03-29 15:17:00,58.1,37.4,30.22,North,0,0.0,0.0,46,0.00,,SCT250,0.00,VWS V14.01,2013-03-29 19:17:00,
2013-03-29 15:22:00,58.1,37.4,30.19,North,0,0.0,0.0,46,0.00,,SCT250,0.00,VWS V14.01,2013-03-29 19:22:00,
2013-03-29 15:28:00,58.8,37.1,30.19,North,0,0.0,0.0,44,0.00,,SCT250,0.00,VWS V14.01,2013-03-29 19:28:00,
2013-03-29 15:33:00,59.0,37.2,30.19,North,0,0.0,0.0,44,0.00,,SCT250,0.00,VWS V14.01,2013-03-29 19:33:00,
2013-03-29 15:38:00,58.5,37.7,30.19,North,0,0.0,0.0,46,0.00,,BKN080,0.00,VWS V14.01,2013-03-29 19:38:00,
2013-03-29 15:43:00,58.1,36.4,30.19,North,0,0.0,0.0,44,0.00,,BKN080,0.00,VWS V14.01,2013-03-29 19:43:00,
2013-03-29 15:48:00,57.9,37.2,30.19,North,0,0.0,0.0,46,0.00,,BKN080,0.00,VWS V14.01,2013-03-29 19:48:00,
2013-03-29 15:53:00,58.3,38.5,30.19,North,0,0.0,0.0,48,0.00,,BKN080,0.00,VWS V14.01,2013-03-29 19:53:00,
2013-03-29 15:58:00,58.6,38.8,30.19,North,0,0.0,0.0,48,0.00,,BKN080,0.28,VWS V14.01,2013-03-29 19:58:00,
2013-03-29 16:03:00,58.1,37.4,30.19,North,0,0.0,0.0,46,0.00,,BKN080,0.00,VWS V14.01,2013-03-29 20:03:00,
2013-03-29 16:08:00,57.9,37.2,30.19,North,0,0.0,0.0,46,0.00,,BKN080,0.00,VWS V14.01,2013-03-29 20:08:00,
2013-03-29 16:13:00,57.9,37.2,30.19,North,0,0.0,0.0,46,0.00,,BKN080,0.00,VWS V14.01,2013-03-29 20:13:00,
2013-03-29 16:18:00,57.9,37.2,30.19,North,0,0.0,0.0,46,0.00,,BKN080,0.00,VWS V14.01,2013-03-29 20:18:00,
2013-03-29 16:24:00,57.9,37.2,30.19,North,0,0.0,0.0,46,0.00,,BKN080,0.00,VWS V14.01,2013-03-29 20:24:00,
2013-03-29 16:29:00,57.6,36.9,30.19,North,0,0.0,0.0,46,0.00,,BKN080,0.00,VWS V14.01,2013-03-29 20:29:00,
2013-03-29 16:34:00,57.4,37.7,30.19,North,0,0.0,0.0,48,0.00,,BKN080,0.00,VWS V14.01,2013-03-29 20:34:00,
2013-03-29 16:39:00,57.4,37.7,30.19,North,0,0.0,0.0,48,0.00,,BKN080,0.00,VWS V14.01,2013-03-29 20:39:00,
2013-03-29 16:44:00,57.2,37.5,30.19,North,0,0.0,0.0,48,0.00,,BKN080,0.00,VWS V14.01,2013-03-29 20:44:00,
2013-03-29 16:49:00,57.0,37.3,30.19,North,0,0.0,0.0,48,0.00,,BKN080,0.00,VWS V14.01,2013-03-29 20:49:00,
2013-03-29 16:55:00,56.8,37.2,30.19,North,0,0.0,0.0,48,0.00,,BKN080,0.00,VWS V14.01,2013-03-29 20:55:00,
2013-03-29 17:00:00,56.8,38.1,30.19,North,0,0.0,0.0,49,0.00,,BKN080,0.00,VWS V14.01,2013-03-29 21:00:00,
2013-03-29 17:05:00,57.0,37.3,30.19,North,0,0.0,0.0,48,0.00,,BKN080,0.00,VWS V14.01,2013-03-29 21:05:00,
2013-03-29 17:10:00,57.0,37.3,30.19,North,0,0.0,0.0,48,0.00,,BKN080,0.00,VWS V14.01,2013-03-29 21:10:00,
2013-03-29 17:16:00,57.0,37.3,30.19,North,0,0.0,0.0,48,0.00,,BKN080,0.00,VWS V14.01,2013-03-29 21:16:00,
2013-03-29 17:21:00,57.0,37.3,30.19,North,0,0.0,0.0,48,0.00,,BKN080,0.00,VWS V14.01,2013-03-29 21:21:00,
2013-03-29 17:26:00,57.0,37.3,30.19,North,0,0.0,0.0,48,0.00,,BKN080,0.00,VWS V14.01,2013-03-29 21:26:00,
2013-03-29 17:31:00,56.8,37.2,30.19,North,0,0.0,0.0,48,0.00,,BKN080,0.00,VWS V14.01,2013-03-29 21:31:00,
2013-03-29 17:36:00,56.8,37.2,30.19,North,0,0.0,0.0,48,0.00,,BKN080,0.00,VWS V14.01,2013-03-29 21:36:00,
2013-03-29 17:41:00,56.7,37.9,30.16,North,0,0.0,0.0,49,0.00,,BKN080,0.00,VWS V14.01,2013-03-29 21:41:00,
2013-03-29 17:46:00,56.7,37.0,30.16,North,0,0.0,0.0,48,0.00,,BKN080,0.00,VWS V14.01,2013-03-29 21:46:00,
2013-03-29 17:52:00,56.8,37.2,30.16,North,0,0.0,0.0,48,0.00,,BKN080,0.00,VWS V14.01,2013-03-29 21:52:00,
2013-03-29 17:57:00,56.8,38.1,30.19,North,0,0.0,0.0,49,0.00,,BKN080,0.00,VWS V14.01,2013-03-29 21:57:00,
2013-03-29 18:02:00,56.7,37.9,30.19,North,0,0.0,0.0,49,0.00,,BKN080,0.00,VWS V14.01,2013-03-29 22:02:00,
2013-03-29 18:07:00,56.5,37.7,30.19,North,0,0.0,0.0,49,0.00,,BKN080,0.00,VWS V14.01,2013-03-29 22:07:00,
2013-03-29 18:12:00,56.5,37.7,30.16,North,0,0.0,0.0,49,0.00,,BKN080,0.00,VWS V14.01,2013-03-29 22:12:00,
2013-03-29 18:17:00,56.3,37.6,30.16,North,0,0.0,0.0,49,0.00,,BKN080,0.00,VWS V14.01,2013-03-29 22:17:00,
2013-03-29 18:22:00,56.1,42.2,30.16,North,0,0.0,0.0,60,0.00,,BKN080,0.00,VWS V14.01,2013-03-29 22:22:00,
2013-03-29 18:28:00,55.6,42.5,30.19,North,0,0.0,0.0,61,0.00,,BKN080,0.00,VWS V14.01,2013-03-29 22:28:00,
2013-03-29 18:33:00,55.2,42.1,30.19,North,0,0.0,0.0,61,0.00,,BKN080,0.00,VWS V14.01,2013-03-29 22:33:00,
2013-03-29 18:38:00,55.0,42.7,30.19,North,0,0.0,0.0,63,0.00,,BKN080,0.00,VWS V14.01,2013-03-29 22:38:00,
2013-03-29 18:43:00,54.9,42.5,30.19,North,0,0.0,0.0,63,0.00,,BKN080,0.00,VWS V14.01,2013-03-29 22:43:00,
2013-03-29 18:48:00,54.9,42.5,30.19,North,0,0.0,0.0,63,0.00,,BKN080,0.00,VWS V14.01,2013-03-29 22:48:00,
2013-03-29 18:53:00,54.7,41.6,30.19,North,0,0.0,0.0,61,0.00,,BKN080,0.00,VWS V14.01,2013-03-29 22:53:00,
2013-03-29 18:59:00,54.9,42.5,30.19,North,0,0.0,0.0,63,0.00,,BKN080,0.00,VWS V14.01,2013-03-29 22:59:00,
2013-03-29 19:04:00,54.9,42.5,30.19,North,0,0.0,0.0,63,0.00,,BKN080,0.00,VWS V14.01,2013-03-29 23:04:00,
2013-03-29 19:09:00,54.9,42.5,30.19,North,0,0.0,0.0,63,0.00,,BKN080,0.00,VWS V14.01,2013-03-29 23:09:00,
2013-03-29 19:14:00,54.7,42.3,30.19,North,0,0.0,0.0,63,0.00,,BKN080,0.00,VWS V14.01,2013-03-29 23:14:00,
2013-03-29 19:19:00,54.7,42.3,30.19,North,0,0.0,0.0,63,0.00,,BKN080,0.00,VWS V14.01,2013-03-29 23:19:00,
2013-03-29 19:24:00,54.5,42.1,30.19,North,0,0.0,0.0,63,0.00,,BKN080,0.00,VWS V14.01,2013-03-29 23:24:00,
2013-03-29 19:30:00,54.5,42.1,30.19,North,0,0.0,0.0,63,0.00,,BKN080,0.00,VWS V14.01,2013-03-29 23:30:00,
2013-03-29 19:35:00,54.3,42.0,30.19,North,0,0.0,0.0,63,0.00,,BKN080,0.00,VWS V14.01,2013-03-29 23:35:00,
2013-03-29 19:40:00,54.1,41.8,30.19,North,0,0.0,0.0,63,0.00,,BKN080,0.00,VWS V14.01,2013-03-29 23:40:00,
2013-03-29 19:45:00,54.0,41.6,30.19,North,0,0.0,0.0,63,0.00,,BKN080,0.00,VWS V14.01,2013-03-29 23:45:00,
2013-03-29 19:50:00,53.6,41.3,30.19,North,0,0.0,0.0,63,0.00,,BKN080,0.00,VWS V14.01,2013-03-29 23:50:00,
2013-03-29 19:55:00,53.4,41.8,30.19,North,0,0.0,0.0,65,0.00,,BKN080,0.00,VWS V14.01,2013-03-29 23:55:00,
2013-03-29 20:00:00,53.1,41.5,30.19,North,0,0.0,0.0,65,0.00,,BKN080,0.00,VWS V14.01,2013-03-30 00:00:00,
2013-03-29 20:05:00,52.7,41.1,30.19,North,0,0.0,0.0,65,0.00,,BKN080,0.00,VWS V14.01,2013-03-30 00:05:00,
2013-03-29 20:11:00,52.5,41.0,30.19,North,0,0.0,0.0,65,0.00,,BKN080,0.00,VWS V14.01,2013-03-30 00:11:00,
2013-03-29 20:17:00,52.0,41.1,30.19,North,0,0.0,0.0,66,0.00,,BKN080,0.00,VWS V14.01,2013-03-30 00:17:00,
2013-03-29 20:22:00,51.6,40.8,30.19,North,0,0.0,0.0,66,0.00,,BKN080,0.00,VWS V14.01,2013-03-30 00:22:00,
2013-03-29 20:27:00,51.4,41.2,30.19,North,0,0.0,0.0,68,0.00,,BKN080,0.00,VWS V14.01,2013-03-30 00:27:00,
2013-03-29 20:32:00,51.3,41.1,30.19,North,0,0.0,0.0,68,0.00,,BKN080,0.00,VWS V14.01,2013-03-30 00:32:00,
2013-03-29 20:38:00,51.1,41.5,30.19,North,0,0.0,0.0,70,0.00,,BKN080,0.00,VWS V14.01,2013-03-30 00:38:00,
2013-03-29 20:43:00,51.1,42.2,30.19,North,0,0.0,0.0,71,0.00,,BKN080,0.00,VWS V14.01,2013-03-30 00:43:00,
2013-03-29 20:48:00,51.1,43.4,30.19,North,0,0.0,0.0,75,0.00,,BKN080,0.00,VWS V14.01,2013-03-30 00:48:00,
2013-03-29 20:53:00,51.1,44.0,30.19,North,0,0.0,0.0,76,0.00,,BKN080,0.00,VWS V14.01,2013-03-30 00:53:00,
2013-03-29 20:58:00,50.9,43.8,30.19,North,0,0.0,0.0,76,0.00,,BKN080,0.00,VWS V14.01,2013-03-30 00:58:00,
2013-03-29 21:04:00,50.7,43.6,30.19,North,0,0.0,0.0,76,0.00,,BKN080,0.00,VWS V14.01,2013-03-30 01:04:00,
2013-03-29 21:09:00,50.5,43.4,30.19,North,0,0.0,0.0,76,0.00,,BKN080,0.00,VWS V14.01,2013-03-30 01:09:00,
2013-03-29 21:14:00,50.5,41.6,30.19,North,0,0.0,0.0,71,0.00,,BKN080,0.00,VWS V14.01,2013-03-30 01:14:00,
2013-03-29 21:19:00,50.5,41.0,30.19,North,0,0.0,0.0,70,0.00,,BKN080,0.00,VWS V14.01,2013-03-30 01:19:00,
2013-03-29 21:25:00,50.5,41.0,30.19,North,0,0.0,0.0,70,0.00,,BKN080,0.00,VWS V14.01,2013-03-30 01:25:00,
2013-03-29 21:30:00,50.4,40.2,30.19,North,0,0.0,0.0,68,0.00,,BKN080,0.00,VWS V14.01,2013-03-30 01:30:00,
2013-03-29 21:35:00,50.4,38.9,30.19,North,0,0.0,0.0,65,0.00,,BKN080,0.00,VWS V14.01,2013-03-30 01:35:00,
2013-03-29 21:40:00,50.5,38.4,30.19,North,0,0.0,0.0,63,0.00,,BKN070,0.00,VWS V14.01,2013-03-30 01:40:00,
2013-03-29 21:45:00,50.7,38.6,30.19,North,0,0.0,0.0,63,0.00,,BKN070,0.00,VWS V14.01,2013-03-30 01:45:00,
2013-03-29 21:51:00,50.9,38.7,30.19,North,0,0.0,0.0,63,0.00,,BKN070,0.00,VWS V14.01,2013-03-30 01:51:00,
2013-03-29 21:56:00,50.7,37.9,30.22,North,0,0.0,0.0,61,0.00,,BKN070,0.00,VWS V14.01,2013-03-30 01:56:00,
2013-03-29 22:01:00,50.7,37.9,30.22,North,0,0.0,0.0,61,0.00,,BKN070,0.00,VWS V14.01,2013-03-30 02:01:00,
2013-03-29 22:06:00,50.5,37.7,30.22,North,0,0.0,0.0,61,0.00,,BKN070,0.00,VWS V14.01,2013-03-30 02:06:00,
2013-03-29 22:11:00,50.2,36.6,30.22,North,0,0.0,0.0,60,0.00,,BKN070,0.00,VWS V14.01,2013-03-30 02:11:00,
2013-03-29 22:17:00,50.0,36.5,30.22,North,0,0.0,0.0,60,0.00,,BKN070,0.00,VWS V14.01,2013-03-30 02:17:00,
2013-03-29 22:22:00,49.6,36.1,30.22,North,0,0.0,0.0,60,0.00,,BKN070,0.00,VWS V14.01,2013-03-30 02:22:00,
2013-03-29 22:27:00,49.5,36.0,30.22,North,0,0.0,0.0,60,0.00,,BKN070,0.00,VWS V14.01,2013-03-30 02:27:00,
2013-03-29 22:32:00,49.1,35.6,30.22,North,0,0.0,0.0,60,0.00,,BKN070,0.00,VWS V14.01,2013-03-30 02:32:00,
2013-03-29 22:37:00,48.7,35.3,30.22,North,0,0.0,0.0,60,0.00,,BKN070,0.00,VWS V14.01,2013-03-30 02:37:00,
2013-03-29 22:42:00,48.6,35.1,30.22,North,0,0.0,0.0,60,0.00,,BKN070,0.00,VWS V14.01,2013-03-30 02:42:00,
2013-03-29 22:47:00,48.2,34.8,30.22,North,0,0.0,0.0,60,0.00,,BKN070,0.00,VWS V14.01,2013-03-30 02:47:00,
2013-03-29 22:52:00,48.0,35.3,30.22,North,0,0.0,0.0,61,0.00,,BKN070,0.00,VWS V14.01,2013-03-30 02:52:00,
2013-03-29 22:57:00,47.7,35.0,30.22,North,0,0.0,0.0,61,0.00,,BKN070,0.00,VWS V14.01,2013-03-30 02:57:00,
2013-03-29 23:02:00,47.5,35.5,30.22,North,0,0.0,0.0,63,0.00,,BKN070,0.00,VWS V14.01,2013-03-30 03:02:00,
2013-03-29 23:07:00,47.1,35.2,30.22,North,0,0.0,0.0,63,0.00,,BKN070,0.00,VWS V14.01,2013-03-30 03:07:00,
2013-03-29 23:13:00,46.9,35.0,30.22,North,0,0.0,0.0,63,0.00,,BKN070,0.00,VWS V14.01,2013-03-30 03:13:00,
2013-03-29 23:18:00,46.6,35.3,30.22,North,0,0.0,0.0,65,0.00,,BKN070,0.00,VWS V14.01,2013-03-30 03:18:00,
2013-03-29 23:24:00,46.2,35.0,30.22,North,0,0.0,0.0,65,0.00,,BKN070,0.00,VWS V14.01,2013-03-30 03:24:00,
2013-03-29 23:29:00,45.9,34.6,30.22,North,0,0.0,0.0,65,0.00,,BKN070,0.00,VWS V14.01,2013-03-30 03:29:00,
2013-03-29 23:34:00,45.5,34.3,30.22,North,0,0.0,0.0,65,0.00,,BKN070,0.00,VWS V14.01,2013-03-30 03:34:00,
2013-03-29 23:39:00,45.3,34.1,30.22,North,0,0.0,0.0,65,0.00,,SCT070,0.00,VWS V14.01,2013-03-30 03:39:00,
2013-03-29 23:44:00,45.0,34.4,30.22,North,0,0.0,0.0,66,0.00,,SCT070,0.00,VWS V14.01,2013-03-30 03:44:00,
2013-03-29 23:49:00,44.6,34.1,30.22,North,0,0.0,0.0,66,0.00,,SCT070,0.00,VWS V14.01,2013-03-30 03:49:00,
2013-03-29 23:54:00,44.2,34.4,30.22,North,0,0.0,0.0,68,0.00,,SCT070,0.00,VWS V14.01,2013-03-30 03:54:00,
2013-03-29 23:59:00,43.7,33.8,30.22,North,0,0.0,0.0,68,0.00,,SCT070,0.00,VWS V14.01,2013-03-30 03:59:00,